DW4075 Weather Reports


Display with metric or nautical units.
time (UTC)temp
F
wind
direction
speed
MPH
gust
MPH
rain 1hr
in
rain 24hr
in
rain mn
in
humidity
%
barometer
mb
20260903074155 57 312 0.0 2.0 0.00 0.00 0.00 53 1024.2
20260903073912 58 312 0.0 3.0 0.00 0.00 0.00 53 1024.1
20260903073154 58 312 1.0 4.0 0.00 0.00 0.00 52 1024.0
20260903073145 58 312 0.0 5.0 0.00 0.00 0.00 52 1023.9
20260903072154 58 312 4.0 5.0 0.00 0.00 0.00 52 1023.9
20260903071655 58 312 2.0 5.0 0.00 0.00 0.00 52 1023.9
20260903071154 59 312 2.0 5.0 0.00 0.00 0.00 51 1024.0
20260903070655 59 312 3.0 5.0 0.00 0.00 0.00 51 1023.9
20260903070154 59 312 4.0 5.0 0.00 0.00 0.00 50 1023.9
20260903065654 59 312 4.0 5.0 0.00 0.00 0.00 50 1024.0
20260903065154 59 312 3.0 5.0 0.00 0.00 0.00 50 1023.9
20260903064655 59 312 3.0 4.0 0.00 0.00 0.00 50 1023.9
20260903064416 59 312 3.0 4.0 0.00 0.00 0.00 50 1023.9
20260903063654 59 312 0.0 0.0 0.00 0.00 0.00 50 1024.0
20260903063154 59 312 0.0 0.0 0.00 0.00 0.00 50 1023.9
20260903062654 59 312 0.0 0.0 0.00 0.00 0.00 50 1024.0
20260903062155 0 0.0 0.0 0.00 0.00 0.00 1024.0
20260903061655 59 312 0.0 0.0 0.00 0.00 0.00 50 1023.9
20260903061421 59 312 0.0 0.0 0.00 0.00 0.00 50 1024.0
20260903060716 60 312 0.0 0.0 0.00 0.00 0.00 49 1024.0
20260903060706 59 312 0.0 0.0 0.00 0.00 0.00 49 1024.0
20260903055918 60 312 0.0 0.0 0.00 0.00 0.00 49 1023.9
20260903055155 60 312 0.0 0.0 0.00 0.00 0.00 48 1024.0
20260903054655 61 312 0.0 0.0 0.00 0.00 0.00 47 1024.0
20260903054413 61 312 0.0 0.0 0.00 0.00 0.00 46 1023.9
20260903053654 62 312 0.0 0.0 0.00 0.00 0.00 45 1023.9
20260903053156 62 312 0.0 0.0 0.00 0.00 0.00 45 1023.8
20260903052920 63 312 0.0 0.0 0.00 0.00 0.00 44 1023.6
20260903052154 63 312 0.0 0.0 0.00 0.00 0.00 44 1023.6
20260903051654 64 312 0.0 1.0 0.00 0.00 0.00 43 1023.8
20260903051153 65 312 0.0 1.0 0.00 0.00 0.00 42 1023.8
20260903050654 66 312 0.0 1.0 0.00 0.00 0.00 41 1023.8
20260903050155 66 312 0.0 0.0 0.00 0.00 0.00 40 1023.6
20260903045654 67 312 0.0 4.0 0.00 0.00 0.00 39 1023.6
20260903045154 67 312 0.0 6.0 0.00 0.00 0.00 39 1023.6
20260903044653 67 312 3.0 6.0 0.00 0.00 0.00 39 1023.6
20260903044154 67 312 5.0 5.0 0.00 0.00 0.00 38 1023.5
20260903043654 67 312 3.0 5.0 0.00 0.00 0.00 38 1023.5
20260903043153 67 312 3.0 9.0 0.00 0.00 0.00 38 1023.6
20260903042654 67 312 3.0 9.0 0.00 0.00 0.00 38 1023.8
20260903042154 67 309 4.0 6.0 0.00 0.00 0.00 38 1023.8
20260903041654 67 309 3.0 6.0 0.00 0.00 0.00 38 1023.8
20260903041153 67 307 4.0 7.0 0.00 0.00 0.00 38 1023.8
20260903040654 67 305 4.0 7.0 0.00 0.00 0.00 38 1023.8
20260903040154 67 306 3.0 5.0 0.00 0.00 0.00 38 1023.8
20260903035654 67 306 2.0 5.0 0.00 0.00 0.00 37 1023.6
20260903035154 67 306 3.0 5.0 0.00 0.00 0.00 36 1023.8
20260903034654 67 306 2.0 5.0 0.00 0.00 0.00 36 1023.6
20260903034153 68 306 2.0 6.0 0.00 0.00 0.00 36 1023.6
20260903033653 68 306 3.0 6.0 0.00 0.00 0.00 35 1023.8
20260903033154 68 306 4.0 6.0 0.00 0.00 0.00 35 1023.6
20260903032653 68 306 4.0 6.0 0.00 0.00 0.00 35 1023.6
20260903032417 68 303 3.0 6.0 0.00 0.00 0.00 35 1023.6
20260903031654 68 303 4.0 7.0 0.00 0.00 0.00 35 1023.6
20260903031154 68 303 4.0 7.0 0.00 0.00 0.00 36 1023.5
20260903030654 68 302 4.0 7.0 0.00 0.00 0.00 36 1023.5
20260903030153 68 268 3.0 7.0 0.00 0.00 0.00 36 1023.3
20260903025654 68 255 3.0 6.0 0.00 0.00 0.00 36 1023.4
20260903025155 69 254 4.0 6.0 0.00 0.00 0.00 36 1023.3
20260903024655 69 254 2.0 4.0 0.00 0.00 0.00 36 1023.2
20260903024152 69 254 2.0 5.0 0.00 0.00 0.00 36 1023.0
20260903023654 69 254 3.0 5.0 0.00 0.00 0.00 36 1023.0
20260903023153 70 254 0.0 0.0 0.00 0.00 0.00 36 1023.2
20260903022652 70 252 0.0 0.0 0.00 0.00 0.00 35 1022.9
20260903022153 71 252 0.0 0.0 0.00 0.00 0.00 34 1022.9
20260903021653 71 254 0.0 0.0 0.00 0.00 0.00 34 1022.9
20260903021412 71 254 0.0 0.0 0.00 0.00 0.00 33 1022.8
20260903020653 72 252 0.0 0.0 0.00 0.00 0.00 33 1022.8
20260903020154 72 252 0.0 0.0 0.00 0.00 0.00 32 1022.7
20260903015652 73 252 0.0 0.0 0.00 0.00 0.00 32 1022.7
20260903015153 74 252 0.0 0.0 0.00 0.00 0.00 31 1022.5
20260903014653 75 254 0.0 0.0 0.00 0.00 0.00 31 1022.7
20260903014153 76 252 0.0 0.0 0.00 0.00 0.00 29 1022.4
20260903013910 77 252 0.0 0.0 0.00 0.00 0.00 28 1022.4
20260903013152 78 254 0.0 0.0 0.00 0.00 0.00 28 1022.4
20260903012652 79 252 0.0 0.0 0.00 0.00 0.00 27 1022.4
20260903012416 80 254 0.0 0.0 0.00 0.00 0.00 27 1022.4
20260903011911 80 252 0.0 3.0 0.00 0.00 0.00 26 1022.5
20260903011152 81 252 0.0 6.0 0.00 0.00 0.00 25 1022.4
20260903010653 82 252 2.0 6.0 0.00 0.00 0.00 24 1022.4
20260903010152 83 252 3.0 5.0 0.00 0.00 0.00 25 1022.4
20260903005652 83 251 2.0 5.0 0.00 0.00 0.00 24 1022.4
20260903005152 83 250 4.0 5.0 0.00 0.00 0.00 24 1022.5
20260903004652 83 248 1.0 6.0 0.00 0.00 0.00 25 1022.5
20260903004417 84 248 2.0 6.0 0.00 0.00 0.00 25 1022.5
20260903003652 85 268 2.0 7.0 0.00 0.00 0.00 24 1022.5
20260903003153 85 268 0.0 10.0 0.00 0.00 0.00 24 1022.5
20260903002652 85 261 6.0 11.0 0.00 0.00 0.00 24 1022.5
20260903002152 84 264 4.0 11.0 0.00 0.00 0.00 24 1022.5
20260903001652 83 259 4.0 10.0 0.00 0.00 0.00 25 1022.5
20260903001411 83 213 4.0 12.0 0.00 0.00 0.00 25 1022.5
20260903000652 83 247 3.0 12.0 0.00 0.00 0.00 24 1022.5
20260903000410 85 285 6.0 13.0 0.00 0.00 0.00 23 1022.8
20260903000135 86 292 5.0 13.0 0.00 0.00 0.00 21 1022.7
20260902235152 87 281 6.0 13.0 0.00 0.00 0.00 21 1022.7
20260902234652 87 288 6.0 13.0 0.00 0.00 0.00 21 1022.7
20260902234152 88 323 5.0 14.0 0.00 0.00 0.00 22 1022.8
20260902233913 87 244 2.0 14.0 0.00 0.00 0.00 23 1022.7
20260902233152 87 244 5.0 12.0 0.00 0.00 0.00 24 1022.8
20260902232651 87 269 7.0 12.0 0.00 0.00 0.00 23 1022.9
20260902232151 87 204 7.0 12.0 0.00 0.00 0.00 22 1022.8
20260902231652 88 288 3.0 10.0 0.00 0.00 0.00 24 1022.7
20260902231152 88 243 0.0 11.0 0.00 0.00 0.00 23 1022.9
20260902230652 87 245 2.0 11.0 0.00 0.00 0.00 23 1022.8
20260902230152 86 244 3.0 13.0 0.00 0.00 0.00 24 1022.9
20260902225652 87 214 7.0 14.0 0.00 0.00 0.00 23 1022.9
20260902225152 87 310 5.0 14.0 0.00 0.00 0.00 23 1022.9
20260902224652 87 261 5.0 14.0 0.00 0.00 0.00 23 1022.9
20260902224152 86 248 2.0 6.0 0.00 0.00 0.00 25 1022.9
20260902223652 85 250 3.0 6.0 0.00 0.00 0.00 26 1022.9
20260902223152 85 283 2.0 13.0 0.00 0.00 0.00 26 1023.0
20260902222652 85 271 3.0 13.0 0.00 0.00 0.00 24 1023.0
20260902222151 86 314 7.0 13.0 0.00 0.00 0.00 24 1023.2
20260902221913 86 298 5.0 12.0 0.00 0.00 0.00 24 1023.2
20260902221152 86 237 5.0 14.0 0.00 0.00 0.00 24 1023.2
20260902220651 86 264 6.0 15.0 0.00 0.00 0.00 23 1023.3
20260902220408 86 193 5.0 15.0 0.00 0.00 0.00 27 1023.3
20260902215652 86 300 5.0 11.0 0.00 0.00 0.00 24 1023.3
20260902215412 87 276 5.0 13.0 0.00 0.00 0.00 24 1023.3
20260902214913 87 254 6.0 13.0 0.00 0.00 0.00 23 1023.3
20260902214415 88 305 6.0 14.0 0.00 0.00 0.00 23 1023.4
20260902214133 88 243 6.0 14.0 0.00 0.00 0.00 23 1023.4
20260902213152 88 235 6.0 16.0 0.00 0.00 0.00 23 1023.4
20260902212652 88 296 6.0 16.0 0.00 0.00 0.00 23 1023.6
20260902212152 87 283 7.0 14.0 0.00 0.00 0.00 24 1023.5
20260902211652 87 176 4.0 14.0 0.00 0.00 0.00 25 1023.5
20260902211152 88 224 6.0 17.0 0.00 0.00 0.00 24 1023.8
20260902210652 88 286 11.0 17.0 0.00 0.00 0.00 23 1023.8
20260902210152 88 285 6.0 14.0 0.00 0.00 0.00 24 1023.9
20260902205912 87 309 5.0 14.0 0.00 0.00 0.00 25 1023.9
20260902205151 87 248 3.0 11.0 0.00 0.00 0.00 24 1024.0
20260902204912 86 195 4.0 9.0 0.00 0.00 0.00 28 1024.1
20260902204152 87 192 1.0 10.0 0.00 0.00 0.00 25 1024.2
20260902203652 87 192 4.0 10.0 0.00 0.00 0.00 24 1024.2
20260902203152 87 293 4.0 9.0 0.00 0.00 0.00 28 1024.4
20260902202651 87 276 3.0 12.0 0.00 0.00 0.00 30 1024.5
20260902202152 86 338 5.0 12.0 0.00 0.00 0.00 29 1024.6
20260902201652 86 271 4.0 15.0 0.00 0.00 0.00 29 1024.6
20260902201152 87 214 6.0 15.0 0.00 0.00 0.00 29 1024.7
20260902201138 87 176 4.0 10.0 0.00 0.00 0.00 30 1024.6
20260902200152 87 102 3.0 9.0 0.00 0.00 0.00 30 1025.0
20260902195652 87 172 3.0 9.0 0.00 0.00 0.00 32 1025.0
20260902195151 86 128 3.0 7.0 0.00 0.00 0.00 32 1025.1
20260902194652 85 148 3.0 10.0 0.00 0.00 0.00 33 1025.1
20260902194152 85 164 4.0 13.0 0.00 0.00 0.00 32 1025.2
20260902193652 84 109 4.0 15.0 0.00 0.00 0.00 33 1025.3
20260902193151 83 125 4.0 15.0 0.00 0.00 0.00 36 1025.3
20260902192651 81 323 3.0 5.0 0.00 0.00 0.00 38 1025.6
20260902192638 81 329 1.0 9.0 0.00 0.00 0.00 39 1025.5
20260902191651 81 323 3.0 11.0 0.00 0.00 0.00 38 1025.7
20260902191418 82 350 3.0 14.0 0.00 0.00 0.00 37 1025.6
20260902190651 82 6 7.0 14.0 0.00 0.00 0.00 35 1025.3
20260902190151 83 47 3.0 7.0 0.00 0.00 0.00 33 1025.6
20260902185912 83 158 2.0 4.0 0.00 0.00 0.00 33 1025.7
20260902185151 83 159 1.0 10.0 0.00 0.00 0.00 36 1025.8
20260902184651 83 159 4.0 10.0 0.00 0.00 0.00 34 1025.9
20260902184151 84 73 2.0 7.0 0.00 0.00 0.00 35 1026.1
20260902183651 84 83 3.0 7.0 0.00 0.00 0.00 34 1026.2
20260902183151 83 87 4.0 11.0 0.00 0.00 0.00 35 1026.2
20260902182651 83 93 5.0 11.0 0.00 0.00 0.00 35 1026.2
20260902182150 82 103 3.0 7.0 0.00 0.00 0.00 36 1026.2
20260902181651 82 85 4.0 11.0 0.00 0.00 0.00 36 1026.6
20260902181413 83 83 4.0 11.0 0.00 0.00 0.00 36 1026.7
20260902180651 83 62 5.0 10.0 0.00 0.00 0.00 35 1026.7
20260902180152 83 58 4.0 9.0 0.00 0.00 0.00 38 1026.7
20260902175651 82 47 3.0 10.0 0.00 0.00 0.00 38 1026.8
20260902175151 82 49 5.0 10.0 0.00 0.00 0.00 38 1026.9
20260902174652 81 127 2.0 10.0 0.00 0.00 0.00 36 1026.9
20260902174151 81 103 4.0 10.0 0.00 0.00 0.00 37 1027.0
20260902173651 80 120 3.0 7.0 0.00 0.00 0.00 41 1027.0
20260902173151 80 124 4.0 7.0 0.00 0.00 0.00 40 1027.2
20260902172651 80 90 2.0 7.0 0.00 0.00 0.00 44 1027.2
20260902172151 79 87 2.0 6.0 0.00 0.00 0.00 42 1027.2
20260902171651 79 89 2.0 6.0 0.00 0.00 0.00 41 1027.3
20260902171151 78 80 2.0 6.0 0.00 0.00 0.00 44 1027.3
20260902170915 78 73 2.0 6.0 0.00 0.00 0.00 45 1027.3
20260902170150 78 68 1.0 6.0 0.00 0.00 0.00 47 1027.5
20260902165651 77 68 2.0 6.0 0.00 0.00 0.00 47 1027.4
20260902165151 77 66 2.0 7.0 0.00 0.00 0.00 49 1027.4
20260902164651 77 56 1.0 7.0 0.00 0.00 0.00 48 1027.5
20260902164416 76 58 2.0 5.0 0.00 0.00 0.00 51 1027.5
20260902163651 75 59 1.0 4.0 0.00 0.00 0.00 53 1027.5
20260902163151 75 59 2.0 4.0 0.00 0.00 0.00 55 1027.6
20260902162651 74 59 2.0 4.0 0.00 0.00 0.00 54 1027.5
20260902162151 74 59 2.0 4.0 0.00 0.00 0.00 55 1027.4
20260902161652 73 61 2.0 4.0 0.00 0.00 0.00 57 1027.5
20260902161151 73 61 0.0 5.0 0.00 0.00 0.00 57 1027.5
20260902160651 73 61 2.0 5.0 0.00 0.00 0.00 57 1027.5
20260902160412 73 116 3.0 5.0 0.00 0.00 0.00 55 1027.5
20260902155650 74 117 2.0 5.0 0.00 0.00 0.00 55 1027.4
20260902155150 73 117 1.0 6.0 0.00 0.00 0.00 57 1027.3
20260902154651 72 124 2.0 6.0 0.00 0.00 0.00 60 1027.3
20260902154416 71 25 2.0 6.0 0.00 0.00 0.00 60 1027.3
20260902153650 71 25 3.0 6.0 0.00 0.00 0.00 59 1027.3
20260902153151 71 24 1.0 5.0 0.00 0.00 0.00 60 1027.3
20260902152651 71 24 2.0 5.0 0.00 0.00 0.00 58 1027.4
20260902152151 71 24 0.0 5.0 0.00 0.00 0.00 58 1027.4
20260902151650 71 24 2.0 5.0 0.00 0.00 0.00 57 1027.3
20260902151151 71 23 2.0 6.0 0.00 0.00 0.00 59 1027.3
20260902150651 70 23 2.0 6.0 0.00 0.00 0.00 60 1027.3
20260902150148 70 21 2.0 5.0 0.00 0.00 0.00 60 1027.3
20260902145908 69 21 2.0 5.0 0.00 0.00 0.00 61 1027.4
20260902145148 69 23 2.0 5.0 0.00 0.00 0.00 61 1027.3
20260902144648 69 21 1.0 5.0 0.00 0.00 0.00 63 1027.3
20260902144635 68 21 1.0 5.0 0.00 0.00 0.00 63 1027.4
20260902143645 67 21 1.0 4.0 0.00 0.00 0.00 64 1027.3
20260902143136 67 21 2.0 4.0 0.00 0.00 0.00 64 1027.4
20260902142633 67 21 0.0 2.0 0.00 0.00 0.00 65 1027.3
20260902142132 66 21 0.0 3.0 0.00 0.00 0.00 67 1027.3
20260902141629 65 21 0.0 3.0 0.00 0.00 0.00 69 1027.2
20260902141130 65 21 0.0 1.0 0.00 0.00 0.00 71 1027.2
20260902140630 64 21 0.0 1.0 0.00 0.00 0.00 73 1027.2
20260902140131 63 21 0.0 1.0 0.00 0.00 0.00 77 1027.0
20260902135856 62 21 0.0 1.0 0.00 0.00 0.00 79 1027.0
20260902135354 60 21 0.0 1.0 0.00 0.00 0.00 82 1026.9
20260902134630 59 21 0.0 2.0 0.00 0.00 0.00 85 1026.9
20260902134130 57 21 0.0 2.0 0.00 0.00 0.00 87 1026.8
20260902133852 55 21 0.0 0.0 0.00 0.00 0.00 88 1026.8
20260902133130 54 21 0.0 0.0 0.00 0.00 0.00 89 1026.8
20260902132629 53 21 0.0 0.0 0.00 0.00 0.00 90 1026.4
20260902132128 52 21 0.0 0.0 0.00 0.00 0.00 90 1026.6
20260902132109 52 21 0.0 0.0 0.00 0.00 0.00 88 1026.4
20260902131126 51 21 0.0 0.0 0.00 0.00 0.00 87 1026.6
20260902130624 51 21 0.0 0.0 0.00 0.00 0.00 87 1026.4
20260902130122 51 21 0.0 0.0 0.00 0.00 0.00 87 1026.3
20260902125623 51 21 0.0 0.0 0.00 0.00 0.00 87 1026.3
20260902125121 51 21 0.0 0.0 0.00 0.00 0.00 86 1026.4
20260902124619 51 21 0.0 0.0 0.00 0.00 0.00 85 1026.3
20260902124120 51 21 0.0 0.0 0.00 0.00 0.00 85 1026.3
20260902123846 51 21 0.0 0.0 0.00 0.00 0.00 85 1026.2
20260902123119 51 21 0.0 0.0 0.00 0.00 0.00 85 1026.3
20260902122842 51 21 0.0 0.0 0.00 0.00 0.00 85 1026.3
20260902122118 51 21 0.0 0.0 0.00 0.00 0.00 85 1026.1
20260902121620 52 21 0.0 0.0 0.00 0.00 0.00 85 1026.2
20260902121600 52 21 0.0 0.0 0.00 0.00 0.00 85 1026.2
20260902120619 52 21 0.0 0.0 0.00 0.00 0.00 84 1026.2
20260902120559 52 21 0.0 0.0 0.00 0.00 0.00 83 1026.2
20260902115614 52 21 0.0 0.0 0.00 0.01 0.00 83 1026.2
20260902115113 52 21 0.0 0.0 0.00 0.01 0.00 82 1026.1
20260902114613 53 21 0.0 0.0 0.00 0.01 0.00 82 1026.2
20260902114114 53 21 0.0 0.0 0.00 0.01 0.00 81 1026.2
20260902113613 53 21 0.0 0.0 0.00 0.01 0.00 81 1025.9
20260902113113 53 21 0.0 0.0 0.00 0.01 0.00 81 1025.9
20260902112613 53 21 0.0 0.0 0.00 0.01 0.00 81 1026.2
20260902112113 53 21 0.0 0.0 0.00 0.01 0.00 80 1026.1
20260902111613 54 21 0.0 0.0 0.00 0.01 0.00 79 1026.1
20260902111114 54 21 0.0 0.0 0.00 0.01 0.00 80 1026.1
20260902110613 54 21 0.0 0.0 0.00 0.01 0.00 80 1025.9
20260902110113 54 21 0.0 0.0 0.00 0.01 0.00 79 1025.9
20260902105838 54 21 0.0 0.0 0.00 0.01 0.00 79 1026.1
20260902105113 54 21 0.0 0.0 0.00 0.01 0.00 80 1026.1
20260902104833 54 21 0.0 0.0 0.00 0.01 0.00 80 1026.1
20260902104113 55 21 0.0 0.0 0.00 0.01 0.00 80 1026.1
20260902103613 55 21 0.0 0.0 0.00 0.01 0.00 80 1025.9
20260902103113 55 21 0.0 0.0 0.00 0.01 0.00 79 1025.8
20260902102613 56 21 0.0 0.0 0.00 0.01 0.00 79 1025.9
20260902102112 56 21 0.0 0.0 0.00 0.01 0.00 78 1025.8
20260902101607 56 21 0.0 0.0 0.00 0.01 0.00 79 1025.8
20260902101104 56 21 0.0 0.0 0.00 0.01 0.00 79 1025.9
20260902100604 56 21 0.0 0.0 0.00 0.01 0.00 78 1025.8
20260902100104 57 21 0.0 0.0 0.00 0.01 0.00 78 1025.8
20260902095604 57 21 0.0 0.0 0.00 0.02 0.00 78 1025.8
20260902095104 57 21 0.0 2.0 0.00 0.03 0.00 78 1025.9
20260902094602 57 21 0.0 2.0 0.00 0.04 0.00 78 1025.9
20260902094102 58 21 1.0 2.0 0.00 0.06 0.00 78 1025.8
20260902093600 58 21 0.0 0.0 0.00 0.06 0.00 78 1025.8
20260902093101 58 21 0.0 1.0 0.00 0.07 0.00 77 1025.9
20260902092601 59 21 0.0 3.0 0.00 0.07 0.00 77 1025.8
20260902092101 59 21 1.0 3.0 0.00 0.08 0.00 77 1025.9
20260902091600 59 21 1.0 5.0 0.00 0.08 0.00 77 1025.9
20260902091325 59 21 1.0 5.0 0.00 0.08 0.00 76 1025.9
20260902090601 60 21 1.0 4.0 0.00 0.08 0.00 76 1025.9
20260902090100 60 21 0.0 0.0 0.00 0.08 0.00 78 1025.9
20260902085601 60 21 0.0 0.0 0.00 0.08 0.00 79 1026.1
20260902085101 60 21 0.0 0.0 0.00 0.08 0.00 79 1025.9
20260902084601 60 21 0.0 0.0 0.00 0.08 0.00 79 1026.1
20260902084058 60 21 0.0 0.0 0.00 0.08 0.00 79 1026.1
20260902083558 60 21 0.0 0.0 0.00 0.08 0.00 79 1025.9
20260902083057 60 21 0.0 0.0 0.00 0.08 0.00 79 1025.9
20260902082557 60 21 0.0 0.0 0.00 0.08 0.00 79 1025.9
20260902082059 60 21 0.0 0.0 0.00 0.08 0.00 79 1026.1
20260902081556 61 21 0.0 0.0 0.00 0.08 0.00 78 1025.9
20260902081055 61 21 0.0 0.0 0.00 0.08 0.00 78 1026.1
20260902080555 61 21 0.0 0.0 0.00 0.08 0.00 77 1026.1
20260902080055 61 21 0.0 0.0 0.00 0.08 0.00 77 1026.2
20260902075554 61 21 0.0 0.0 0.00 0.08 0.00 76 1026.2
20260902075324 61 21 0.0 0.0 0.00 0.08 0.00 76 1026.2
20260902074555 61 21 0.0 0.0 0.00 0.08 0.00 76 1026.2